www.pogodaiklimat.ru

Погода и климат >> Архив погоды >> Индонезия >> Кетапанг


ПОГОДА в Кетапанге

  • Прогноз погоды в Кетапанге
  • Монитор погоды в Кетапанге

АРХИВ ПОГОДЫ в Кетапанге

Время (UTC), дата Ветер
(напр.,м/с)
 
Видим.   Явления Облачность Т
(С)
Тd
(С)
f
(%)
Тe
(С)
Тes
(С)
Комфортность P
(гПа)
Po
(гПа)
Тmin
(С)
Tmax
(С)
R
(мм)
R24
(мм)
S
(см)
00 18.06 В 4 10 км {дождь} 9/0
[Ac trans Ci fib]
+26.3 +24.4 89 +37 +37 очень
душно
1011.8 1010.7 +24.0 0.0
03 18.06 ЮВ 5 10 км 6/4 360 м
[Cu hum Ac trans Ci fib]
+30.8 +24.7 70 +44 +47 опасность
перегрева
1011.3 1010.2
06 18.06 ЮВ 4 10 км 8/6 300 м
[Cu med, cong Ac trans Ci fib]
+33.0 +24.7 62 +46 +50 опасность
перегрева
1009.2 1008.1
09 18.06 СВ 4 3000 м гроза, ливневой дождь 10/8 330 м
[Cb cap As op]
+28.4 +27.3 94 +45 +46 опасность
перегрева
1008.9 1007.8 9
12 18.06 ЮВ 2 6000 м гроза без осадков 9/5 330 м
[Cb cap Ac trans Ci sp]
+25.9 +24.1 90 +36 +36 очень
душно
1010.0 1008.9 +33.7 29
15 18.06 В 3 4000 м слаб. дождь 10/6 330 м
[Cb cap As op]
+25.1 +24.3 95 +35 +35 очень
душно
1012.2 1011.1 4
18 18.06 З 1 4000 м слаб. дождь 10/6 330 м
[Cb cap As op]
+23.6 +23.2 98 +32 +32 очень
душно
1012.0 1010.9 53
21 18.06 штиль 0 5000 м слаб. дождь 10/6 360 м
[Cu med, cong As op]
+23.8 +23.5 98 +32 +32 очень
душно
1010.9 1009.9 3
00 19.06 В 2 9000 м {дождь} 10/1 300 м
[Cu hum Ac As Ci sp]
+24.6 +24.0 96 +34 +35 очень
душно
1012.1 1011.0 +22.7 0.0
03 19.06 ЮВ 4 7000 м 10/8 300 м
[Cu hum Ac As Ci fib]
+26.7 +24.5 88 +38 +39 очень
душно
1013.0 1011.9
06 19.06 В 4 8000 м 10/4 300 м
[Cu hum Ac As Ci fib]
+28.1 +24.3 80 +39 +43 очень
душно
1010.2 1009.1
09 19.06 В 3 10 км 10/4 300 м
[Cu hum As op Ci fib]
+26.9 +23.5 82 +37 +37 очень
душно
1008.9 1007.8
12 19.06 В 2 6000 м 9/3 360 м
[Cu hum As op Ci fib]
+25.8 +23.5 87 +35 +35 очень
душно
1010.6 1009.5 +28.9
15 19.06 С 3 6000 м 9/5 360 м
[Cu med, cong Ac trans Ci fib]
+25.0 +23.3 90 +33 +33 очень
душно
1013.0 1011.9
18 19.06 штиль 0 6000 м в посл. час дождь 10/5 360 м
[Cu med, cong As op]
+24.2 +23.4 95 +32 +32 очень
душно
1011.7 1010.6 4
21 19.06 штиль 0 6000 м 9/4 360 м
[Cu med, cong Ac trans Ci sp]
+23.7 +23.0 96 +31 +31 очень
душно
1010.5 1009.4
00 20.06 штиль 0 9000 м 9/1 570 м
[Sc diur, vesp Ac As Ci fib]
+24.2 +23.6 96 +33 +34 очень
душно
1012.1 1011.0 +23.4 4
03 20.06 В 7 10 км 9/1 300 м
[Cu hum Ac trans Ci fib]
+28.6 +25.6 84 +42 +45 опасность
перегрева
1012.2 1011.1
06 20.06 ЮВ 4 10 км 8/4 330 м
[Cu hum Ac trans Ci fib]
+32.4 +23.1 58 +43 +47 опасность
перегрева
1010.0 1008.9
09 20.06 ЮВ 2 10 км 6/3 360 м
[Cu hum Ac trans Ci fib]
+31.6 +24.0 64 +43 +45 опасность
перегрева
1008.2 1007.1
12 20.06 Ю 2 6000 м 4/3 360 м
[Cu med, cong Ac trans Ci fib]
+28.3 +25.6 85 +42 +42 опасность
перегрева
1009.6 1008.5 +33.1
15 20.06 ЮВ 3 6000 м 3/0
[Ci fib]
+27.1 +25.3 90 +39 +39 очень
душно
1010.8 1009.7
18 20.06 ЮВ 3 6000 м 3/0
[Ci fib]
+26.1 +24.3 90 +36 +36 очень
душно
1010.5 1009.4
21 20.06 В 3 6000 м 3/0
[Ci fib]
+25.0 +23.8 93 +34 +34 очень
душно
1009.8 1008.7
00 21.06 В 3 10 км 8/1 360 м
[Cu med, cong Ci fib]
+25.8 +23.9 89 +35 +37 очень
душно
1011.0 1009.9 +24.2
03 21.06 В 4 10 км 8/1 360 м
[Cu hum Ci fib]
+31.3 +24.7 68 +44 +52 опасность
перегрева
1010.5 1009.5
06 21.06 ЮВ 2 10 км 6/4 360 м
[Cu hum Ci fib]
+32.8 +24.6 62 +46 +55 опасность
перегрева
1008.4 1007.3
09 21.06 Ю 3 10 км 3/1 360 м
[Cu med, cong Ci fib]
+32.0 +25.3 68 +46 +48 опасность
перегрева
1007.3 1006.2
12 21.06 ЮЗ 2 6000 м 4/1 360 м
[Cu med, cong Ci fib]
+28.6 +25.5 83 +42 +42 опасность
перегрева
1008.9 1007.9 +33.8
15 21.06 ЮВ 3 6000 м 5/1 360 м
[Cu med, cong Ac trans Ci fib]
+28.0 +24.5 81 +39 +39 очень
душно
1010.1 1009.1
18 21.06 ЮВ 2 6000 м 8/1 360 м
[Cu med, cong Ac trans Ci fib]
+26.3 +24.5 90 +37 +37 очень
душно
1009.4 1008.3
21 21.06 В 2 6000 м 4/1 360 м
[Cu hum Ci fib]
+25.4 +24.3 94 +35 +35 очень
душно
1008.8 1007.7
00 22.06 ЮВ 3 9000 м 4/1 360 м
[Cu med, cong Ci fib]
+26.4 +24.5 89 +37 +38 очень
душно
1010.0 1008.9 +24.8
03 22.06 ЮВ 5 10 км 6/5 360 м
[Cu med, cong Ci fib]
+31.4 +24.7 68 +45 +49 опасность
перегрева
1010.0 1008.9
06 22.06 ЮВ 3 10 км 6/4 360 м
[Cu med, cong Ac trans Ci fib]
+32.4 +24.0 61 +44 +51 опасность
перегрева
1008.1 1007.1
09 22.06 Ю 3 10 км 8/3 360 м
[Cu med, cong Ac trans Ci fib]
+31.2 +24.7 68 +44 +45 опасность
перегрева
1007.2 1006.1
12 22.06 Ю 2 7000 м 6/3 360 м
[Cu hum Ac trans Ci fib]
+28.8 +25.7 83 +43 +43 опасность
перегрева
1008.7 1007.6 +33.5
15 22.06 Ю 3 6000 м 6/3 360 м
[Cu hum Ac trans Ci fib]
+28.0 +25.0 84 +40 +40 очень
душно
1010.5 1009.5
18 22.06 ЮВ 2 6000 м 6/1 360 м
[Cu hum Ac trans Ci fib]
+27.0 +25.1 89 +39 +39 очень
душно
1009.7 1008.6
21 22.06 В 2 6000 м 8/1 360 м
[Cu hum Ac trans Ci fib]
+25.8 +24.7 94 +37 +37 очень
душно
1009.3 1008.2
00 23.06 ЮВ 2 8000 м 9/1 360 м
[Cu hum Ac trans Ci fib]
+26.3 +24.4 89 +37 +38 очень
душно
1011.4 1010.3 +24.8
03 23.06 ЮВ 4 10 км 9/4 330 м
[Cu hum Ac trans Ci fib]
+30.5 +24.3 70 +43 +47 опасность
перегрева
1011.4 1010.3
06 23.06 ЮВ 4 10 км 3/1 360 м
[Cu hum Ci fib]
+32.4 +24.1 62 +45 +54 опасность
перегрева
1008.9 1007.8
09 23.06 Ю 4 10 км 3/1 360 м
[Cu hum Ci fib]
+31.4 +24.8 68 +45 +47 опасность
перегрева
1008.0 1007.0
12 23.06 ЮВ 3 6000 м 6/1 360 м
[Cu med, cong Ac trans Ci fib]
+29.6 +23.9 71 +41 +41 опасность
перегрева
1009.5 1008.4 +32.8
15 23.06 ЮВ 3 6000 м 4/1 360 м
[Cu hum Ac trans Ci fib]
+27.5 +23.8 80 +38 +38 очень
душно
1011.1 1010.0
18 23.06 ЮВ 3 6000 м 4/1 360 м
[Cu hum Ci fib]
+25.8 +24.0 90 +36 +36 очень
душно
1011.2 1010.1
21 23.06 В 4 6000 м 4/1 360 м
[Cu hum Ci fib]
+24.7 +23.6 94 +34 +34 очень
душно
1010.9 1009.8
00 24.06 В 3 8000 м 4/0
[Ac trans Ci fib]
+25.7 +23.9 90 +35 +37 очень
душно
1012.5 1011.4 +24.2
03 24.06 В 5 10 км 5/1 300 м
[Cu med, cong Ac trans Ci fib]
+31.0 +23.3 64 +42 +47 опасность
перегрева
1011.9 1010.8
06 24.06 В 5 10 км 5/1 330 м
[Cu med, cong Ci fib]
+33.7 +22.7 53 +44 +50 опасность
перегрева
1010.4 1009.3
09 24.06 ЮВ 5 10 км 8/4 330 м
[Cu hum Ac trans Ci fib]
+32.3 +23.4 59 +43 +44 опасность
перегрева
1009.2 1008.1
12 24.06 ЮВ 2 6000 м 8/3 360 м
[Cu med, cong Ac trans Ci fib]
+29.1 +24.1 74 +40 +40 очень
душно
1010.8 1009.7 +34.3
15 24.06 ЮВ 4 6000 м 5/1 360 м
[Cu hum Ac trans Ci fib]
+27.3 +23.6 80 +37 +37 очень
душно
1012.4 1011.3
18 24.06 ЮВ 3 6000 м 4/1 360 м
[Cu hum Ac trans Ci fib]
+25.9 +23.0 84 +35 +35 очень
душно
1012.1 1011.0
21 24.06 В 2 6000 м 6/1 360 м
[Cu hum Ac trans Ci fib]
+24.3 +22.8 91 +32 +32 очень
душно
1011.8 1010.7

 

Местоположение метеостанции Кетапанг (Индонезия): широта -1.85 долгота 109.96 высота над уровнем моря 9 м.

В архиве по умолчанию представлена погода в Кетапанге за последнюю неделю. Архивные данные за месяц целиком и за предыдущие месяцы, начиная с января 2011 года, Вы можете получить, выбрав интересующий диапазон дат из раскрывающегося списка и нажав кнопку "Ввод!".


*Определитесь, кто Вы:
робот инопланетянин человек

Внимание! Время в таблицах - всемирное. Для получения местного времени необходимо прибавить поправку, которая равна 7 ч.

Смотрите также архив погоды в соседних городах и на ближайших метеорологических станциях:

Погода в Понтианаке (Индонезия) (199 км)
Погода в Пангкалан-Буне (Индонезия) (215 км)
Погода в Нангапинохе (Индонезия) (262 км)
Погода в Танджунгпандане (Индонезия) (265 км)
Погода в Синтанге (Индонезия) (280 км)
Погода в Кучинге (Малайзия) (373 км)
Погода в Парохе (Индонезия) (409 км)
Погода в Панкалпинанге (Индонезия) (427 км)
Погода на Путусиббау (Индонезия) (446 км)
Погода в Паоанкарая (Индонезия) (459 км)

Пояснения к столбцам:

Ветер - указаны скорость ветра в м/с - средняя за 10 мин, порывы в срок и между сроками (в фигурных скобках) и направление, откуда дует ветер: С - северный, СВ - северо-восточный, В - восточный, ЮВ - юго-восточный, Ю - южный, ЮЗ - юго-западный, З - западный, СЗ - северо-западный.
Видимость - горизонтальная дальность видимости в метрах или километрах. При видимости от 1 до 10 км при отсутствии осадков обычно наблюдается дымка, при ухудшении видимости до 1 км и менее - туман. В сухую погоду видимость может ухудшаться дымом, пылью или мглою.
Явления - указаны атмосферные явления, наблюдавшиеся в срок или в последний час перед сроком; фигурными скобками обозначены явления, наблюдавшиеся между сроками (за 1-3 часа до срока); квадратными скобками обозначены град или гололедные отложения с указанием их диаметра в мм.
Облачность - указаны через наклонную черту общая и нижняя облачность в баллах и высота нижней границы облаков в метрах; квадратными скобками обозначены формы облаков: Ci - перистые, Cs - перисто-слоистые, Cc - перисто-кучевые, Ac - высококучевые, As - высокослоистые, Sc - слоисто-кучевые, Ns - слоисто-дождевые, Cu - кучевые, Cb - кучево-дождевые. Подробнее классификацию облаков см. в Атласе облаков (PDF).
T - Температура воздуха - температура, измеренная на высоте 2 м над землей.
Td - Температура точки росы - температура, при понижении до которой содержащийся в воздухе водяной пар достигнет насыщения.
f - Относительная влажность воздуха - влажноcть воздуха, измеренная на высоте 2 м над землей.
Te - Эффективная температура - температура, которую ощущает одетый по сезону человек в тени. Характеристика душности погоды. При расчете учитывается влияние влажности воздуха и скорости ветра на теплоощущения человека.
Tes - Эффективная температура на солнце - температура, которую ощущает человек, с поправкой на солнечный нагрев. Характеристика знойности погоды. Зависит от высоты солнца над горизонтом, облачности и скорости ветра. Ночью, в пасмурную погоду, а также при ветре 12 м/с и более поправка равна нулю.
P - Атмосферное давление - приведенное к уровню моря атмосферное давление.
Po - Атмосферное давление - измеренное на уровне метеостанции атмосферное давление.
Tmin - Минимальная температура - минимум температуры воздуха на высоте 2 м над землей.
Tmax - Максимальная температура - максимум температуры воздуха на высоте 2 м над землей.
R - Количество осадков - Количество выпавших осадков за период времени, мм. При наведении курсора мыши на число - период времени, за который выпало указанное количество осадков.
R24 - Количество осадков - Количество выпавших осадков за 24 часа, мм.
S - Снежный покров - Высота снежного покрова, см. При наведении курсора мыши на число - состояние снежного покрова и степень покрытия местности в баллах.